Zurück zum Katalog

FLOCK 4H 18

AktivWissenschaftSSO
NORAD 66721·PAYLOAD·🇺🇸 United States

Gestartet Nov 28, 2025 von Vandenberg Space Force Base

Loading…

Nächste Überflüge (nächste 24 Stunden)

TLE

AktuellSource: CelesTrak SupGP

Epoche: Sep 14, 2026, 12:45 UTC

1 66721C 25276BH  26257.53140046  .00010043  00000+0  45728-3 0  2572
2 66721  97.4107 329.4634 0005425  82.0911 196.5357 15.20743121    13

Verfolge FLOCK 4H 18 in Echtzeit mit AllMySat

Download on the App Store